Location: Croydon
(51.3762°N, 0.0982°W)
Time: 18:52:30
(UTC+00:00)

Altair - Pass Details

Date: 16 November 2019
Orbit: 1502 x 1682 km, 47.2° (Epoch: 12 December)

Event Time Altitude Azimuth Distance (km) Brightness Sun altitude
Rises 05:14:29 0° 245° (WSW) 4,631 - -19.2°
Reaches altitude 10° 05:17:31 10° 242° (WSW) 3,650 - -18.7°
Exits shadow 05:19:01 16° 240° (WSW) 3,182 8.7 -18.5°
Maximum altitude 05:26:30 63° 165° (SSE) 1,666 7.7 -17.3°
Drops below altitude 10° 05:35:40 10° 87° (E) 3,726 10.8 -15.9°
Sets 05:38:48 0° 85° (E) 4,732 11.6 -15.4°
